This is the latest recevied weather packets stored in our database for station/object OH5GWF-1. If no packets are shown the sender has not sent any weather packets the latest 10 day(s).
| Time | Temp. | Humidity | Pressure | Rain* | Wind** | Luminosity | Snow |
|---|---|---|---|---|---|---|---|
| 1787388833 | 21.67° C | 92% | 1008.1 hPa | 0 mm | - | - | - |
| 1787388411 | 21.67° C | 91% | 1008.2 hPa | 0 mm | - | - | - |
| 1787387988 | 22.22° C | 91% | 1008.3 hPa | 0 mm | - | - | - |
| 1787387578 | 23.33° C | 91% | 1008.1 hPa | 0 mm | - | - | - |
| 1787387156 | 21.67° C | 99% | 1008.2 hPa | 0 mm | - | - | - |
| 1787386734 | 18.33° C | 99% | 1008.2 hPa | 0 mm | - | - | - |
| 1787386313 | 18.33° C | 99% | 1008.3 hPa | 0 mm | - | - | - |
| 1787385892 | 18.33° C | 99% | 1008.4 hPa | 0 mm | - | - | - |
| 1787385470 | 18.89° C | 99% | 1008.5 hPa | 0 mm | - | - | - |
| 1787385049 | 18.89° C | 99% | 1008.4 hPa | 0 mm | - | - | - |
| 1787384640 | 18.33° C | 99% | 1008.6 hPa | 0 mm | - | - | - |
| 1787384218 | 18.33° C | 99% | 1008.4 hPa | 0 mm | - | - | - |
| 1787383796 | 18.89° C | 99% | 1008.4 hPa | 0 mm | - | - | - |
| 1787383374 | 18.89° C | 99% | 1008.4 hPa | 0 mm | - | - | - |
| 1787382951 | 20° C | 99% | 1008.4 hPa | 0 mm | - | - | - |
| 1787382529 | 20° C | 99% | 1008.4 hPa | 0 mm | - | - | - |
| 1787382120 | 18.33° C | 99% | 1008.4 hPa | 0 mm | - | - | - |
| 1787381697 | 17.78° C | 99% | 1008.4 hPa | 0 mm | - | - | - |
| 1787381276 | 17.78° C | 99% | 1008.5 hPa | 0 mm | - | - | - |
| 1787380854 | 17.78° C | 99% | 1008.5 hPa | 0 mm | - | - | - |
| 1787380432 | 17.22° C | 99% | 1008.5 hPa | 0 mm | - | - | - |
| 1787380022 | 16.67° C | 99% | 1008.4 hPa | 0 mm | - | - | - |
| 1787379599 | 16.11° C | 99% | 1008.5 hPa | 0 mm | - | - | - |
| 1787379105 | 15.56° C | 99% | 1008.4 hPa | 0 mm | - | - | - |
| 1787378682 | 15.56° C | 99% | 1008.4 hPa | 0 mm | - | - | - |
* Rain latest hour (hover to see other rain measurements)
** Current wind speed in m/s (hover to see current wind gust speed)